New River MCAS, NC

6:57 PM EST on December 16, 2017 (GMT -0500)
New River Marine Corps Air Station

Weather History for KNCA - January, 2013

Change the Weather History Date:

Tuesday, January 1, 2013

  Actual Average Record
Temperature  
Mean Temperature 54 °F -  
Max Temperature 59 °F 55 °F 72 °F (2007)
Min Temperature 50 °F 34 °F 23 °F (1998)
Degree Days  
Heating Degree Days 10    
Growing Degree Days 4 (Base 50)    
Moisture  
Dew Point 46 °F    
Average Humidity 73    
Maximum Humidity 90    
Minimum Humidity 53    
Precipitation  
Precipitation 0.00 in - - ()
Sea Level Pressure  
Sea Level Pressure 30.06 in    
Wind  
Wind Speed 7 mph (WSW)    
Max Wind Speed 16 mph    
Max Gust Speed 20 mph    
Visibility 9 miles    
Events Rain    
Averages and records for this station are not official NWS values.
T = Trace of Precipitation, MM = Missing Value Source: NWS Daily Summary

Daily Weather History Graph

Daily Weather History Graph

Search for Another Location

Airport or City:

Trip Planner

Search our weather history database for the weather conditions in past years. The results will help you decide how hot, cold, wet, or windy it might be!

Date:

Astronomy

Jan. 01, 2013 Rise Set
Actual Time 7:17 AM EST 5:10 PM EST
Civil Twilight 6:49 AM EST 5:38 PM EST
Nautical Twilight 6:17 AM EST 6:09 PM EST
Astronomical Twilight 5:47 AM EST 6:40 PM EST
Moon 9:27 PM EST (1/1) 9:38 AM EST (1/1)
Length of Visible Light 10h 48m
Length of Day
9h 52m
Waning Gibbous, 83% of the Moon is Illuminated
Jan 1
Waning Gibbous
Jan 4
Last Quarter
Jan 11
New
Jan 18
First Quarter
Jan 26
Full

Hourly Weather History & Observations

Time (EST) Temp. Dew Point Humidity Pressure Visibility Wind Dir Wind Speed Gust Speed Precip Events Conditions
12:56 AM 50.0 °F 39.0 °F 66% 30.15 in 10.0 mi SW 8.1 mph - N/A   Clear
1:56 AM 52.0 °F 41.0 °F 66% 30.12 in 10.0 mi SW 10.4 mph - N/A   Clear
2:56 AM 52.0 °F 41.0 °F 66% 30.11 in 10.0 mi WSW 6.9 mph - N/A   Scattered Clouds
3:56 AM 52.0 °F 42.1 °F 69% 30.11 in 10.0 mi West 4.6 mph - N/A   Partly Cloudy
4:56 AM 52.0 °F 42.1 °F 69% 30.09 in 10.0 mi Calm Calm - N/A   Scattered Clouds
5:56 AM 51.1 °F 43.0 °F 74% 30.10 in 10.0 mi Calm Calm - N/A   Overcast
6:56 AM 51.1 °F 43.0 °F 74% 30.11 in 10.0 mi West 3.5 mph - N/A   Overcast
7:56 AM 50.0 °F 43.0 °F 77% 30.13 in 10.0 mi Calm Calm - N/A   Overcast
8:56 AM 55.0 °F 44.1 °F 67% 30.13 in 10.0 mi WSW 6.9 mph - N/A   Overcast
9:56 AM 57.0 °F 43.0 °F 59% 30.14 in 10.0 mi WSW 6.9 mph - N/A   Scattered Clouds
10:56 AM 59.0 °F 42.1 °F 53% 30.14 in 10.0 mi West 11.5 mph - N/A   Scattered Clouds
11:56 AM 59.0 °F 43.0 °F 55% 30.10 in 10.0 mi West 11.5 mph - N/A   Overcast
12:56 PM 57.9 °F 46.0 °F 65% 30.05 in 10.0 mi West 11.5 mph 16.1 mph N/A   Overcast
1:56 PM 57.0 °F 46.9 °F 69% 30.03 in 10.0 mi WSW 12.7 mph - 0.00 in Rain Light Rain
2:56 PM 55.9 °F 48.0 °F 75% 30.01 in 10.0 mi SW 11.5 mph - 0.00 in Rain Light Rain
3:56 PM 57.0 °F 50.0 °F 77% 29.99 in 10.0 mi SW 16.1 mph 19.6 mph 0.00 in   Overcast
4:56 PM 55.9 °F 50.0 °F 80% 30.01 in 10.0 mi WSW 6.9 mph - N/A   Overcast
5:56 PM 55.9 °F 50.0 °F 80% 30.02 in 10.0 mi WSW 8.1 mph - N/A   Overcast
6:56 PM 55.9 °F 50.0 °F 80% 30.02 in 10.0 mi WSW 10.4 mph - N/A   Overcast
7:56 PM 55.9 °F 50.0 °F 80% 30.02 in 10.0 mi West 9.2 mph - N/A   Overcast
8:56 PM 55.9 °F 50.0 °F 80% 30.02 in 10.0 mi WSW 6.9 mph - N/A   Overcast
10:06 PM 55.4 °F 51.8 °F 88% 29.99 in 5.0 mi WSW 4.6 mph - N/A   Overcast
10:14 PM 55.4 °F 51.8 °F 88% 29.99 in 7.0 mi West 3.5 mph - N/A   Overcast
10:56 PM 55.0 °F 52.0 °F 89% 29.99 in 7.0 mi Calm Calm - N/A   Overcast
11:56 PM 54.0 °F 51.1 °F 90% 29.98 in 5.0 mi Calm Calm - N/A   Overcast